Regional Weather Roundup
Issued by NWS Sterling, VA

Home | Current Version | Previous Version | Text Only | Print | Product List | Glossary Off
Versions: 1 2 3 4 5 6 7 8 9 10 11 12 13 14 15 16 17 18 19 20 21 22 23 24 25 26 27 28 29 30 31 32 33 34 35 36 37 38 39 40 41 42 43 44 45 46 47 48 49 50

020
ASUS41 KLWX 191811
RWRLWX

REGIONAL WEATHER ROUNDUP
NATIONAL WEATHER SERVICE BALTIMORE MD/WASHINGTON DC
200 PM EDT THU OCT 19 2017

Note: "FAIR" indicates few or no clouds below 12,000 feet
with no significant weather and/or obstructions to visibility.
 TC=TEMPERATURE CELSIUS

 * =Non NWS site. Station does not report precipitation (e.g. rain,
    snow, etc.), thunder, or fog.

DCZ001-MDZ009-015-VAZ040>042-051-053>054-191900-
WASHINGTON METRO

CITY           SKY/WX    TMP DP  RH WIND       PRES   REMARKS
WASHINGTON NAT FAIR      69  48  47 S10       30.21F
DULLES         FAIR      70  46  42 VRB3      30.21F
ANDREWS AFB    FAIR      71  45  38 SW7       30.20F
FT BELVOIR     FAIR      70  47  42 CALM      30.21F
QUANTICO       FAIR      70  48  45 S8        30.22F
COLLEGE PARK*  FAIR      69  44  41 SW5       30.21F
LEESBURG*      FAIR      72  46  40 CALM      30.22F
MANASSAS*      FAIR      71  45  39 SE6       30.21F
GAITHERSBURG*  FAIR      72  46  39 VRB3      30.22F

$$

MDZ006>007-011-014-191900-
BALTIMORE METRO

CITY           SKY/WX    TMP DP  RH WIND       PRES   REMARKS
BWI AIRPORT    FAIR      70  43  37 VRB7      30.20F
MD SCIENCE CTR   N/A     72  45  37 MISG      30.20F
MARTIN STATE   MOSUNNY   70  50  49 S12       30.22F
ANNAPOLIS      FAIR      70  52  52 VRB3      30.21F
FORT MEADE*    FAIR      70  45  40 S5        30.23F

$$

MDZ012-015-019>023-191900-
MARYLAND EASTERN SHORE

CITY           SKY/WX    TMP DP  RH WIND       PRES   REMARKS
OCEAN CITY     FAIR      68  55  63 S10       30.23F
SALISBURY      FAIR      71  52  50 W8        30.22F
CAMBRIDGE*     SUNNY     68  48  49 SW10      30.23F
EASTON*        SUNNY     70  48  46 SW12      30.26F

$$

MDZ017>025-191900-
SOUTHERN MARYLAND

CITY           SKY/WX    TMP DP  RH WIND       PRES   REMARKS
PATUXENT RIVER FAIR      70  47  43 S6        30.22F
ST INIGOES     FAIR      71  50  47 S7        30.22F
LEONARDTOWN*   NOT AVBL

$$

MDZ003>005-191900-
NORTH CENTRAL MARYLAND

CITY           SKY/WX    TMP DP  RH WIND       PRES   REMARKS
FREDERICK*     SUNNY     73  43  33 CALM      30.23F
HAGERSTOWN APT FAIR      70  45  40 SW8       30.19F
WESTMINSTER*   FAIR      70  45  40 SW7       30.20F

$$

MDZ501>502-191900-
WESTERN MARYLAND

CITY           SKY/WX    TMP DP  RH WIND       PRES   REMARKS
OAKLAND*       FAIR      61  39  44 W9G17     30.22F
CUMBERLAND*    FAIR      73  43  33 S3        30.22F

$$

VAZ025>031-191900-
SHENANDOAH VALLEY

CITY           SKY/WX    TMP DP  RH WIND       PRES   REMARKS
WINCHESTER*    FAIR      70  43  37 CALM      30.20F
FRONT ROYAL*   FAIR      73  43  33 CALM      30.19F
LURAY*         FAIR      72  41  33 SW3       30.21F
NEW MARKET*    FAIR      73  36  26 SW3       30.20F
STAUNTON*      FAIR      73  38  28 CALM      30.23F
WAYNESBORO*    FAIR      71  39  31 CALM      30.23F

$$

WVZ021-048>050-054>055-191900-
EASTERN WEST VIRGINIA PANHANDLE

CITY           SKY/WX    TMP DP  RH WIND       PRES   REMARKS
MARTINSBURG    FAIR      72  44  36 S7        30.18F
PETERSBURG*    FAIR      75  40  28 CALM      30.19F

$$

VAZ036>039-050-191900-
CENTRAL FOOTHILLS

CITY           SKY/WX    TMP DP  RH WIND       PRES   REMARKS
CHARLOTTESVILL FAIR      73  45  36 S5        30.21F
CULPEPER*      FAIR      73  42  33 CALM      30.22F
ORANGE*        FAIR      72  45  37 W6        30.21F
GORDONSVILLE*  FAIR      71  46  40 SW8       30.21F
WARRENTON*     FAIR      74  39  27 S5        30.20F

$$

VAZ055>057-191900-
NORTH AND CENTRAL PIEDMONT

CITY           SKY/WX    TMP DP  RH WIND       PRES   REMARKS
FREDERICKSBRG* FAIR      73  45  37 SW6       30.20F
STAFFORD*      FAIR      72  42  33 S5        30.25F

$$

NCZ024-NYZ072-PAZ021-071-VAZ022-071-191900-
OTHER REGIONAL OBSERVATIONS

CITY           SKY/WX    TMP DP  RH WIND       PRES   REMARKS
NEW YORK CITY  FAIR      70  41  34 SW7       30.18F
PHILADELPHIA   FAIR      70  44  39 SW12      30.19F
PITTSBURGH     PTSUNNY   67  46  47 W14       30.19F
ROANOKE        FAIR      71  44  37 VRB5      30.26F
RICHMOND       FAIR      72  43  35 W5        30.23F
RALEIGH        FAIR      73  53  49 SW7       30.26F

$$

ANZ530>537-191900-
MARINE OBSERVATIONS

STATION/POSITION TIME  TEMP    WIND        PRES
                       AIR SEA DIR/SP/G
                 (UTC) (F)     (DEG/KT/KT) (MB)
THOMAS PT LIGHT  1800   65 68  160/ 10/ 12   N/A
BALT KEY BRIDGE  1748   68     210/  5/  7 1022.7F
COVE POINT       1748   68     250/  3/  7 1024.0F
LEWISETTA        1748   68 65  260/  7/ 10 1023.4F
SOLOMONS ISLAND  1748   68 69  250/  8/ 10 1023.0F
PINEY POINT      1736          170/  3/  4   N/A

$$





USA.gov is the U.S. government's official web portal to all federal, state and local government web resources and services.